Location: Bay Shore
(40.7251°N, 73.2454°W)
Time: 02:02:19
(UTC+00:00)

Daily predictions for brighter satellites

Satellite Brightness Start Highest point End
(mag) Time Altitude Azimuth Time Altitude Azimuth Time Altitude Azimuth
ATLAS CENTAUR R/B 3.3 00:03:08 10° NW 00:06:24 26° WSW 00:09:30 10° S
ADEOS Rocket 3.5 00:12:18 10° N 00:19:13 77° WNW 00:26:45 10° SSW
Cosmos 1943 3.0 00:14:37 10° NNW 00:20:19 85° ENE 00:21:30 58° SSE
FALCON 9 R/B 3.3 00:10:25 10° WSW 00:26:09 47° S 00:27:35 41° SE
Cosmos 1140 Rocket 3.9 00:22:28 10° NNW 00:26:26 51° N 00:26:26 51° N
USA 238 DEB 3.7 00:22:12 10° SW 00:28:52 73° NW 00:31:28 40° NNE
USA 238 3.7 00:22:20 10° SW 00:28:59 74° NW 00:31:32 41° NNE
H-2A R/B 3.7 00:38:04 23° N 00:38:04 23° N 00:40:00 10° N
Cosmos 1605 Rocket 4.3 00:31:03 10° S 00:46:13 - N 00:35:43 52° SSE
OAO 2 Rocket 4.5 00:33:12 10° WSW 00:36:35 34° SSW 00:36:35 34° SSW
Cosmos 2123 Rocket 4.5 00:49:58 10° NNW 00:56:08 58° W 01:02:14 10° S
NOSS 3-3 (A) 4.5 00:56:08 10° NW 01:03:49 83° WSW 01:04:05 82° SSW
NOSS 3-3 (C) 4.5 00:56:14 10° NW 01:03:55 84° WSW 01:04:07 83° SSW
ATLAS 5 CENTAUR R/B 4.4 01:02:09 10° NW 01:08:40 88° NE 01:41:14 10° SSE
ATLAS 3B R/B 4.0 01:08:19 10° SSW 01:11:13 28° SSW 01:11:13 28° SSW
CENTAUR R/B 4.1 01:25:39 10° SW 01:28:04 26° WSW 01:28:04 26° WSW
Cosmos 2344 4.4 08:41:20 41° NNE 08:41:20 41° NNE 08:46:24 10° NNE
Cosmos 2322 Rocket 4.1 08:44:41 24° ESE 08:45:40 25° ESE 08:50:11 10° NE
Cosmos 2263 Rocket 3.8 08:47:48 31° E 08:47:48 31° E 08:51:48 10° ESE
ATLAS 3B R/B 3.9 08:46:18 34° NNE 08:47:03 35° NE 08:53:16 10° ESE
NOSS 3-2 (C) 4.2 08:54:59 70° NE 08:55:09 70° NE 09:03:35 10° SE
CENTAUR R/B 3.4 09:02:20 52° N 09:04:23 66° NE 09:13:04 10° SE
NOSS 3-4 (A) 4.1 09:08:08 49° NE 09:08:08 49° NE 09:12:37 10° NE
NOSS 3-4 (C) 4.1 09:08:11 49° NE 09:08:11 49° NE 09:12:43 10° NE
NOSS 3-2 (A) 4.2 09:13:38 61° S 09:13:38 61° S 09:20:43 10° SSE
Timation 1 Rocket 4.4 09:27:36 76° NE 09:27:43 77° ENE 09:33:43 10° SSE
Cosmos 2341 Rocket 4.1 09:22:23 10° N 09:28:38 71° E 09:34:49 10° SSE
SL-16 R/B 2.3 09:28:58 68° SE 09:29:14 69° ESE 09:34:54 10° NNE
Cosmos 2360 Rocket 4.0 09:24:47 10° SSE 09:29:34 29° ESE 09:34:21 10° NE
CZ-3 Stage 3 4.3 09:33:02 24° S 09:33:02 24° S 09:35:00 10° SSE
CZ-3 R/B 3.8 09:23:32 36° WSW 09:32:00 50° SSW 09:40:37 10° SE
Cosmos 1980 Rocket 4.1 09:39:31 17° N 09:39:31 17° N 09:40:59 10° N
Cosmos 1680 Rocket 4.0 09:41:13 48° N 09:41:13 48° N 09:45:04 10° NNE
Gbstr 26 Del rocket 4.1 09:39:16 64° NW 09:39:49 66° NNW 09:47:37 10° NE
ATLAS 2AS CENTAUR R/B 3.1 09:40:31 56° WNW 09:41:04 57° NW 09:48:56 10° NNE
STARLINK 1058 4.3 09:49:16 52° ESE 09:49:16 52° ESE 09:52:57 10° ENE
Cosmos 1371 Rocket 4.5 09:46:26 28° N 09:49:09 61° ENE 09:54:26 10° SSE
Cosmos 2218 Rocket 4.4 09:43:32 10° N 09:49:52 63° E 09:56:05 10° SSE
Meteor 2-10 3.9 09:51:22 76° W 09:51:28 77° W 09:56:46 10° N
Meteor 1-16 Rocket 4.1 09:47:45 18° SSW 09:52:12 78° W 09:58:01 10° N
STARLINK 1043 4.0 09:54:03 59° ESE 09:54:03 59° ESE 09:57:57 10° ENE
STARLINK 1065 3.8 09:58:49 66° SE 09:58:49 66° SE 10:02:55 10° NE
Cosmos 2112 Rocket 4.0 09:59:10 63° NW 09:59:10 63° NW 10:04:17 10° NNE
METEOR-M 4.5 09:58:11 10° NNE 10:03:32 65° ESE 10:08:49 10° S
STARLINK 1063 3.6 10:03:34 71° SSE 10:03:45 73° SE 10:07:54 10° NE
RESURS DK-1 2.2 10:05:22 89° SSW 10:05:24 90° WNW 10:09:35 10° NNE
Cosmos 1953 Rocket 4.0 10:06:38 47° SSW 10:06:38 47° SSW 10:09:51 10° S
FALCON 9 DEB 3.7 10:07:13 56° ENE 10:07:13 56° ENE 10:10:22 10° ESE
Lacrosse 5 2.1 10:07:37 49° NW 10:07:37 49° NW 10:12:30 10° NE
SKYMED 2 3.5 10:03:47 10° SSE 10:08:07 83° ENE 10:10:38 25° N
STARLINK 1064 3.6 10:08:21 71° SSW 10:08:43 80° SE 10:12:52 10° NE
Cosmos 1703 3.7 10:14:08 46° SSW 10:14:08 46° SSW 10:17:02 10° S
STARLINK 1041 3.5 10:13:09 65° SW 10:13:43 87° SE 10:17:52 10° NE
Cosmos 2366 rocket 3.9 10:09:22 10° N 10:15:46 87° W 10:22:07 10° S
Cosmos 1624 Rocket 3.9 10:12:27 21° NNW 10:16:01 89° WSW 10:21:12 10° SSE
STARLINK 1038 3.5 10:17:54 58° WSW 10:18:40 86° NW 10:22:50 10° NE
PAYLOAD B 4.5 10:16:00 10° NNE 10:21:37 72° ESE 10:27:11 10° S
COSMOS 2455 4.4 10:24:17 18° NNW 10:24:17 18° NNW 10:27:33 10° N
STARLINK 1046 3.5 10:22:41 51° WSW 10:23:38 79° NW 10:27:48 10° NE
STARLINK 1039 3.5 10:27:29 45° WSW 10:28:38 72° NW 10:32:47 10° NE
Orbus 7S? 3.8 10:27:26 41° WNW 10:28:43 69° SW 10:36:11 10° SE
Cosmos 2322 Rocket 2.4 10:26:37 27° WSW 10:29:23 46° WNW 10:34:52 10° NNE
STARLINK-60 3.5 10:30:11 44° SW 10:30:11 44° SW 10:33:17 10° SSE
Cosmos 2263 Rocket 2.7 10:29:34 33° W 10:30:36 35° WSW 10:35:41 10° SSW
Cosmos 2056 Rocket 3.5 10:27:50 15° NNW 10:32:19 67° WSW 10:37:39 10° S
ADEOS Rocket 3.8 10:27:49 10° SE 10:33:03 47° ENE 10:38:36 10° N
STARLINK 1045 3.6 10:32:16 39° WSW 10:33:37 66° NW 10:37:45 10° NE
STARLINK-29 3.1 10:34:36 45° NW 10:35:35 89° NE 10:39:07 10° SE
ATLAS 3B R/B 2.8 10:33:35 22° NW 10:37:57 53° WSW 10:44:41 10° S
STARLINK-52 3.1 10:37:17 40° NW 10:38:26 84° NE 10:41:56 10° SE
STARLINK 1050 3.7 10:37:17 35° W 10:38:46 58° NW 10:42:52 10° NE
Cosmos 1340 Rocket 3.8 10:35:30 10° S 10:39:15 47° E 10:43:01 10° NNE
Meteor 1-11 4.3 10:35:47 10° NNW 10:41:16 56° W 10:46:47 10° S
Cosmos 1844 Rocket 3.2 10:35:47 10° NNW 10:41:22 59° ENE 10:46:56 10° SE
Cosmos 158 Rocket 4.5 10:40:14 27° W 10:41:40 33° WNW 10:46:08 10° N
CZ-4B DEB 4.1 10:37:17 10° N 10:42:46 66° WNW 10:48:12 10° SSW
Lacrosse 5 rocket 3.6 10:39:46 10° NNW 10:43:02 20° NNE 10:46:17 10° ENE
STARLINK 1055 3.8 10:41:59 31° W 10:43:41 53° NW 10:47:45 10° NE
Cosmos 2058 Rocket 3.7 10:41:30 10° SW 10:45:25 32° WNW 10:49:21 10° NNW
BREEZE-M DEB (TANK) 4.1 10:43:40 21° NW 10:46:14 38° NNE 10:57:30 10° ENE
SL-8 Rocket 4.4 10:42:16 10° NNW 10:47:51 37° W 10:53:24 10° SSW
Okean O Rocket 1.5 10:43:50 10° N 10:48:17 81° WNW 10:52:41 10° SSW
STARLINK 1022 3.9 10:46:46 27° W 10:48:40 49° NNW 10:52:43 10° NE
Cosmos 1300 2.5 10:46:40 10° SSW 10:50:27 72° W 10:54:16 10° N
ALOS 2.7 10:47:53 10° N 10:52:12 38° WNW 10:56:30 10° SW
USA 215 3.6 10:46:33 10° ESE 10:52:57 62° NE 10:59:23 10° NW
STARLINK 1042 4.0 10:51:29 24° W 10:53:37 46° NNW 10:57:38 10° NE
Cosmos 2333 Rocket 3.2 10:49:07 10° S 10:54:41 52° ESE 11:00:15 10° NNE
CENTAUR R/B 3.9 10:49:35 17° WNW 10:54:52 33° WSW 11:02:23 10° S
COSMO-SKYMED 1 3.4 10:52:33 10° SSW 10:56:18 28° W 10:59:16 14° NW
STARLINK 1056 4.1 10:56:21 21° W 10:58:41 42° NNW 11:02:40 10° NE
ATLAS 2A CENTAUR R/B 4.0 10:56:52 10° SSW 10:59:50 18° SSE 11:05:47 10° ESE
FENGYUN 3A 4.1 10:54:57 10° N 10:59:58 40° WNW 11:04:59 10° SW
H-2A R/B 3.2 10:57:23 10° NNE 11:01:17 67° ESE 11:05:05 10° S
Cosmos 1437 2.5 11:00:09 10° NNW 11:03:10 65° W 11:06:09 10° S
STARLINK 1054 4.2 11:01:04 19° W 11:03:38 40° NNW 11:07:33 10° NE
BREEZE M DEB (TANK) 4.0 10:53:42 14° WNW 11:05:10 61° NNE 11:09:03 10° E
Cosmos 2084 Rocket 3.6 11:02:57 10° SSW 11:07:18 83° SE 11:11:44 10° NE
Cosmos 2058 3.1 11:04:04 10° N 11:08:18 77° E 11:12:29 10° SSE
STARLINK 1062 4.3 11:05:50 17° W 11:08:37 37° NNW 11:12:30 10° NE
Envisat 4.5 11:04:05 10° NNE 11:08:53 41° E 11:13:40 10° SSE
Cosmos 2360 Rocket 2.6 11:08:03 10° SW 11:13:21 40° WNW 11:18:41 10° N
STARLINK 1053 4.4 11:10:41 15° W 11:13:42 35° NNW 11:17:31 10° NE
SL-16 R/B 3.5 11:10:56 13° W 11:13:54 19° NW 11:17:54 10° N
Cosmos 1452 Rocket 3.5 11:09:04 10° NNW 11:14:20 78° WSW 11:19:34 10° SSE
Cosmos 2219 Rocket 2.5 11:10:00 10° SSW 11:15:37 75° ESE 11:21:19 10° NNE
STARLINK 1061 4.5 11:15:28 13° W 11:18:42 33° NNW 11:22:29 10° NE
STARLINK-43 4.4 11:15:30 10° NW 11:19:01 38° NNE 11:22:30 10° ESE
Cosmos 2333 4.2 11:13:58 10° SSW 11:19:44 71° WNW 11:25:31 10° NNE
Cosmos 2322 3.7 11:15:17 10° SW 11:20:52 61° WNW 11:26:30 10° NNE
Cosmos 1821 Rocket 3.9 11:16:14 10° NNW 11:22:19 66° W 11:28:19 10° S
Helios 1A Rocket 3.3 11:20:39 10° N 11:24:34 41° WNW 11:28:27 10° SW
Nadezhda 3 Rocket 4.1 11:19:05 10° SSW 11:25:04 53° W 11:31:08 10° N
Cosmos 482 Debris 2.3 11:25:44 10° WSW 11:27:37 56° NW 11:29:23 10° NE
CZ-4B R/B 3.6 11:23:12 10° N 11:28:18 41° WNW 11:33:19 10° SW
Iridium 96 4.1 11:26:15 10° SSW 11:28:29 34° W 11:30:41 10° NNW
Cosmos 1892 2.7 11:25:41 10° N 11:29:31 88° E 11:33:17 10° S
Alouette 2 Rocket 4.0 11:25:59 10° SW 11:29:50 33° WNW 11:33:08 10° N
Cosmos-2242 3.2 11:26:21 10° S 11:30:45 83° E 11:35:08 10° N
CORIOLIS 4.3 11:26:24 10° NNE 11:31:48 86° ESE 11:37:10 10° SSW
Cosmos 1844 3.7 11:27:06 10° NNW 11:32:38 66° WSW 11:38:07 10° S
CZ-4 R/B 3.7 11:30:04 10° NE 11:33:48 30° E 11:37:29 10° SSE
ATLAS 2AS CENTAUR R/B 4.4 11:28:25 10° WNW 11:33:54 19° NNW 11:39:21 10° NNE
Cosmos 1766 Rocket 4.3 11:33:02 10° N 11:37:18 56° E 11:41:33 10° SSE
